GFSWCAN_2pvu_pres_189.txt.gz
Presure
225 225 215 201 217 223 227 225 221 229 222 226 223 215 240 246 276 268 269 237 217 209 212 215 218 223 235 248 256 263 267 273 284 302 470 452 421 407 414 399 383 359 345 332 315 310 290 284 276 288 280 286 287 283
228 230 235 231 233 227 221 227 224 219 233 251 268 243 255 276 238 209 214 218 220 216 231 231 247 254 261 267 272 278 290 398 422 470 462 451 425 401 394 388 377 344 337 315 313 294 286 274 288 285 286 273 273 277
256 219 245 262 246 255 256 279 272 269 264 199 240 217 207 209 219 224 231 233 242 248 255 254 262 268 282 298 327 406 419 451 442 443 440 449 424 391 376 364 357 330 321 305 298 286 278 281 280 273 271 288 277 270
285 270 276 281 279 268 223 269 271 264 245 212 210 217 235 242 242 242 248 256 263 271 280 288 304 316 419 418 443 481 461 447 430 439 439 440 391 363 359 337 318 301 298 286 281 279 274 272 271 270 271 271 281 284
268 271 219 198 195 217 236 239 241 236 244 244 244 248 253 261 269 303 312 315 317 320 427 423 418 413 476 480 462 446 448 442 437 440 458 377 355 368 334 311 295 290 287 290 268 274 289 291 277 276 274 282 281 283
245 247 248 249 249 236 243 251 243 260 270 288 316 326 328 332 452 468 471 464 459 432 414 411 495 434 414 401 390 388 386 386 390 396 385 350 365 327 310 304 302 295 294 283 273 277 270 287 295 278 177 278 270 281
249 251 259 270 278 288 301 312 337 397 582 549 533 507 494 477 491 472 422 421 410 417 459 419 395 390 383 377 373 372 373 375 378 388 357 358 315 307 299 290 295 290 278 279 270 281 276 269 287 285 290 291 295 292
275 281 282 316 403 447 422 505 478 466 493 490 475 470 435 422 417 408 417 437 450 393 379 375 368 365 363 366 371 375 378 374 383 405 342 311 306 288 287 284 288 283 280 281 274 286 286 278 281 294 277 282 300 309
356 409 417 428 433 418 409 406 396 405 486 479 466 463 466 459 460 429 423 382 369 341 354 347 336 339 339 340 342 362 361 348 337 310 307 293 277 287 286 279 301 279 279 284 280 280 283 288 279 278 278 290 309 315
400 399 400 386 382 395 392 389 386 376 371 370 402 398 390 388 385 362 365 349 344 325 334 336 336 334 334 334 329 323 314 296 304 300 296 290 288 291 282 275 278 272 285 280 294 291 281 281 281 296 313 300 293 297
319 345 362 381 370 365 368 370 376 370 371 362 351 358 364 357 358 360 352 356 342 343 337 327 329 289 314 311 294 307 287 276 291 283 286 285 275 281 291 285 286 293 293 295 280 299 304 309 301 280 281 280 290 295
294 283 280 283 293 302 307 327 356 361 362 354 344 342 344 341 346 346 340 346 337 329 324 304 304 312 307 299 302 303 293 294 285 303 286 293 276 274 278 289 285 285 290 290 289 297 288 291 291 277 277 289 286 289
268 270 271 276 281 283 286 289 294 314 296 303 344 335 328 332 328 338 342 336 338 334 308 307 298 311 295 303 303 308 290 291 282 297 283 291 284 280 279 282 286 293 298 300 286 286 299 289 285 269 277 284 284 286
270 270 272 269 270 275 273 270 273 278 275 272 276 291 335 286 284 322 316 331 321 338 335 318 311 301 303 296 305 299 297 303 298 296 297 286 287 291 292 279 281 293 292 280 280 287 300 292 285 275 275 278 278 281
270 269 269 268 266 268 268 268 269 272 267 265 267 262 267 266 271 273 285 292 281 277 303 312 312 315 312 309 309 305 304 303 308 305 306 303 291 284 283 288 297 287 290 280 297 308 298 298 297 278 278 272 275 275
273 273 271 272 270 267 265 267 267 267 268 267 267 269 262 263 259 257 257 259 260 265 270 281 305 290 297 276 312 303 309 314 307 304 301 293 292 292 292 292 287 285 284 300 288 301 295 300 303 290 277 273 273 270
269 267 267 268 268 267 267 264 265 267 267 266 265 266 265 264 261 262 260 259 257 248 252 254 256 257 261 263 268 280 290 287 268 278 308 309 309 308 306 306 305 305 305 303 303 306 321 298 307 309 287 272 272 273
260 259 260 259 261 263 264 264 263 263 263 264 265 264 262 265 265 264 264 262 259 260 261 258 258 256 254 256 253 253 257 262 265 272 284 294 261 262 297 311 317 321 322 319 316 316 315 328 308 311 312 290 277 266
256 257 258 256 254 253 260 255 255 256 256 257 257 261 263 262 261 262 261 265 266 266 268 269 263 261 263 260 258 257 256 257 257 256 256 260 267 281 296 282 270 269 307 321 322 327 330 327 331 309 312 319 303 294
257 255 257 257 257 256 255 259 260 258 257 263 264 263 260 265 264 261 263 263 264 265 262 263 265 264 264 265 263 263 263 265 267 266 263 259 257 255 257 262 274 300 298 266 282 323 319 342 320 329 308 312 319 302
266 266 267 265 265 264 260 257 258 259 259 255 258 258 260 259 260 263 265 265 266 267 266 270 269 267 269 268 261 261 262 263 263 266 270 275 278 273 261 259 258 259 260 269 306 295 262 331 323 326 331 314 307 316
279 279 275 279 277 276 276 274 275 271 271 273 270 272 271 269 271 271 272 274 276 281 291 296 298 302 305 307 303 312 316 324 280 325 322 282 277 273 274 272 263 259 259 259 262 271 302 304 262 312 328 334 324 311
287 286 285 286 284 288 286 290 290 292 293 292 293 293 294 296 298 302 305 310 318 317 318 314 311 312 315 317 317 323 335 324 327 334 334 355 350 345 333 323 296 269 264 264 263 262 265 276 306 300 272 260 330 316
308 301 295 294 296 298 301 303 302 303 308 310 311 314 315 315 316 313 309 296 285 284 284 285 287 293 290 286 286 292 296 291 287 290 295 302 307 319 338 360 354 342 329 273 273 271 271 271 288 282 310 303 281 262
321 313 314 313 311 311 315 317 319 318 319 318 297 294 292 297 290 284 283 283 286 285 286 288 293 294 294 301 323 324 295 299 290 286 303 320 322 323 322 321 329 368 368 358 338 323 312 311 307 301 296 303 304 305
339 339 334 323 322 325 310 309 304 303 302 299 301 301 300 300 302 304 301 300 301 308 304 295 289 291 303 311 336 338 338 340 338 337 335 325 321 327 342 336 335 330 321 333 358 360 351 335 321 314 311 302 298 304
278 284 334 336 331 325 319 319 319 319 319 318 315 315 316 317 317 317 316 314 312 305 305 301 308 354 355 352 347 347 344 344 341 341 338 371 392 390 387 384 364 352 336 331 331 327 340 358 349 337 322 317 312 307
284 279 277 289 338 337 332 329 326 321 321 322 321 326 326 319 313 314 312 313 321 337 341 363 361 357 353 354 350 393 397 398 496 497 503 498 493 477 406 394 388 384 361 360 352 338 349 353 362 361 349 334 325 319
281 284 278 277 280 290 332 339 334 312 313 312 315 317 313 312 315 323 328 333 346 358 358 353 354 360 392 393 494 526 524 522 523 526 525 507 491 484 494 499 399 385 382 369 363 364 350 346 350 366 366 360 352 345
268 283 281 281 278 278 286 336 339 331 319 313 319 326 320 322 330 336 345 352 358 352 352 361 387 439 478 488 466 471 492 494 494 499 509 505 494 495 488 469 443 399 388 382 379 382 372 350 345 348 346 354 365 360
265 272 279 284 284 279 281 299 345 337 332 328 320 322 331 333 335 349 359 356 352 352 376 387 499 479 476 467 453 467 472 469 471 473 480 488 482 471 473 475 475 425 396 390 382 382 383 373 363 335 346 367 370 366
264 269 276 286 286 283 279 285 318 347 340 331 327 326 339 337 353 361 355 356 354 386 387 478 461 455 457 454 449 467 467 463 459 463 464 462 467 464 431 417 408 400 388 382 380 383 380 374 366 352 350 356 362 360
268 269 278 288 287 283 281 283 298 330 343 334 332 341 350 356 359 358 361 355 385 381 464 448 463 464 458 448 458 464 456 445 442 442 453 455 447 447 448 413 398 387 384 381 379 379 377 372 364 362 369 370 362 355

GFSWCAN_2pvu_pres_192.txt.gz
Presure
220 219 230 233 229 230 225 195 192 221 225 227 226 224 218 202 211 217 213 229 187 204 198 259 259 256 255 264 268 268 233 241 251 261 269 275 296 382 507 454 416 400 407 367 361 333 311 305 292 285 296 292 291 289
217 219 219 224 223 226 221 223 225 211 205 208 228 237 237 228 219 232 166 230 207 268 252 261 268 277 246 239 239 249 256 266 274 304 414 425 439 487 481 393 399 391 389 345 339 309 300 293 289 286 279 267 298 273
231 222 219 218 221 224 225 222 225 220 220 224 228 225 230 229 224 268 274 279 275 280 224 230 238 242 252 263 266 270 310 421 420 440 453 459 456 466 428 374 377 387 353 314 307 298 297 288 281 273 287 275 283 280
258 259 256 241 229 228 228 228 231 215 205 210 244 279 282 282 283 278 243 236 234 244 249 253 274 278 353 451 438 424 468 478 475 470 462 457 453 462 387 374 369 359 314 307 294 287 293 278 282 285 279 273 280 270
275 275 279 214 246 276 282 283 287 285 286 283 280 273 237 245 250 250 262 271 276 283 311 415 458 458 438 464 452 412 404 403 417 445 442 448 456 388 375 357 326 311 299 300 289 282 275 283 288 288 272 272 273 272
263 243 234 239 244 246 245 237 251 262 262 263 269 271 277 280 288 293 471 470 482 478 466 443 440 468 415 397 386 385 385 388 390 411 421 403 387 367 336 316 311 295 293 285 282 280 286 283 290 296 298 273 273 271
249 249 261 263 266 268 272 277 281 291 357 382 372 557 534 518 503 486 493 463 444 437 436 409 389 384 379 379 381 382 385 387 386 414 372 382 342 321 311 302 303 292 295 275 292 287 284 282 276 279 279 258 265 276
255 261 277 290 306 312 391 462 455 446 503 485 476 468 461 450 438 429 443 461 418 371 378 366 372 374 378 377 378 385 375 385 388 356 358 326 315 302 298 298 300 284 284 288 291 284 282 278 274 278 288 294 271 273
306 306 318 418 436 425 448 431 420 412 418 408 408 462 474 470 451 427 404 390 373 351 372 370 354 358 338 345 340 349 350 353 349 321 312 306 305 296 294 289 293 287 282 277 287 276 280 282 281 282 285 281 277 293
435 415 337 314 314 370 418 420 407 396 390 383 384 376 385 392 383 386 360 351 355 353 343 347 337 350 340 327 331 324 313 328 296 287 295 298 289 298 291 281 279 288 272 282 283 286 274 283 292 293 302 302 301 302
311 318 307 286 297 301 298 313 310 356 376 371 369 369 376 359 355 358 359 349 353 336 327 337 309 328 320 320 328 317 284 298 290 293 291 293 291 274 292 273 275 280 272 272 272 290 286 287 299 297 292 294 286 285
265 267 267 262 265 275 279 284 284 289 287 297 313 330 346 351 342 354 354 347 350 324 321 313 303 312 316 309 312 294 302 308 298 284 291 290 297 290 278 278 289 294 297 296 292 295 299 288 298 293 295 286 273 284
270 270 271 271 269 271 279 280 278 272 276 278 277 278 283 283 300 300 336 350 356 341 327 314 318 307 306 308 309 311 311 304 300 280 306 291 288 290 292 283 287 281 282 295 296 297 288 294 286 299 296 287 277 282
275 276 278 281 280 278 274 275 276 275 272 274 275 274 267 267 272 270 272 272 272 280 280 280 306 317 308 314 297 304 298 307 300 300 296 302 290 288 289 278 288 281 280 283 290 288 285 283 286 306 300 290 277 276
281 277 275 274 274 276 278 276 275 279 275 274 275 274 273 270 270 267 266 266 259 259 260 261 266 267 270 272 265 291 301 310 314 310 311 310 315 306 302 299 286 285 286 290 295 284 282 278 286 309 300 294 287 277
268 266 264 263 260 261 264 266 266 265 267 265 268 268 268 268 268 269 270 269 268 265 263 261 255 254 256 255 255 258 260 263 266 268 280 279 280 287 302 301 300 301 300 298 299 302 303 302 302 291 304 297 298 285
263 263 261 261 265 265 266 265 265 262 262 263 266 266 266 267 265 267 266 268 270 272 269 267 270 269 264 261 261 261 256 251 253 252 253 257 263 268 279 282 262 264 277 312 312 312 316 313 314 310 294 312 306 301
263 262 263 263 259 261 260 261 259 258 257 259 259 258 258 260 260 259 261 262 262 265 267 263 267 265 265 267 267 266 266 266 266 265 262 248 250 250 256 256 261 269 285 293 261 270 304 313 316 323 319 324 332 319
273 274 272 271 273 273 271 272 269 268 269 269 269 268 269 265 265 265 266 266 266 268 267 268 268 263 263 264 266 267 265 265 267 267 264 267 269 270 264 259 253 252 254 258 266 285 285 263 300 323 323 340 330 339
286 279 277 276 276 275 273 276 278 282 279 283 286 284 283 282 282 283 282 281 281 281 280 281 285 289 294 297 298 295 293 291 291 289 284 275 274 263 263 269 271 275 272 260 258 259 261 274 301 278 278 325 342 330
299 296 292 292 291 288 284 285 287 287 290 293 294 293 294 296 297 300 302 307 306 309 309 309 312 313 306 300 290 288 289 303 313 318 321 322 323 322 322 322 316 314 290 273 275 265 259 260 260 264 293 299 263 338
328 320 317 313 312 305 305 302 303 304 304 306 308 312 310 310 315 312 310 313 310 308 308 285 281 280 282 283 283 281 283 283 286 286 284 285 294 305 305 306 342 349 360 350 335 288 273 268 262 261 263 264 293 296
277 283 314 336 331 329 327 324 322 325 323 321 307 303 302 297 296 296 298 299 298 299 300 299 297 295 293 296 300 302 299 294 292 290 295 310 316 299 298 290 288 291 298 304 318 350 359 342 272 265 263 262 266 271
282 280 275 274 280 295 343 339 331 325 321 318 316 315 312 310 310 310 308 312 309 311 309 310 312 310 310 313 310 305 300 300 296 299 303 307 309 335 324 309 308 308 296 314 321 321 322 332 367 354 288 273 273 272
258 269 281 283 276 273 274 277 289 331 328 329 328 312 322 315 315 309 315 313 307 304 303 303 307 312 309 310 312 317 331 345 354 357 358 360 359 358 356 350 341 335 331 320 313 315 321 334 320 344 364 352 317 302
264 258 264 271 276 282 281 274 272 275 291 324 336 335 327 316 305 306 313 314 313 309 313 319 323 325 330 340 352 356 353 352 348 350 351 354 356 356 356 354 353 351 358 351 335 323 320 340 348 325 330 361 354 346
265 270 264 262 268 274 284 286 280 273 276 281 310 343 340 336 331 324 323 319 334 334 331 333 342 358 362 361 358 356 357 372 384 387 383 383 476 477 478 521 525 526 504 479 412 406 398 393 385 360 323 315 314 347
254 266 272 266 265 269 279 286 284 282 275 279 286 309 361 344 338 334 337 346 342 342 347 356 359 355 358 353 362 383 379 481 485 489 500 510 504 501 508 519 535 538 534 520 517 504 415 398 395 377 357 330 324 342
266 254 269 273 268 266 269 278 282 282 281 279 287 295 323 346 343 339 343 352 352 354 358 359 360 351 354 380 394 474 467 464 461 457 455 480 469 462 466 489 504 500 508 507 500 505 434 397 394 384 366 358 343 338
269 269 256 274 274 268 266 270 278 278 275 281 295 297 309 343 343 348 351 350 355 360 363 359 352 371 377 472 450 451 459 465 463 475 484 473 456 455 458 472 474 477 484 489 484 461 404 386 392 388 372 369 356 349
272 270 264 270 277 274 271 270 276 277 272 281 295 307 308 336 347 350 356 358 366 365 360 355 380 449 460 460 476 474 462 449 446 469 472 461 451 449 454 461 460 453 461 468 467 421 390 383 382 383 379 382 368 351
276 275 267 266 279 280 275 274 278 270 271 280 296 311 310 334 349 361 358 370 366 362 361 384 447 454 469 487 481 471 445 449 454 476 470 454 445 447 453 453 450 438 427 427 427 410 385 382 379 377 380 379 371 363
280 285 272 267 278 286 279 279 280 267 270 280 294 309 311 342 353 359 369 369 368 360 380 400 459 466 493 480 440 448 453 457 509 483 459 448 445 446 442 440 436 436 409 401 395 387 379 376 377 378 375 371 366 358

GFSWCAN_2pvu_pres_198.txt.gz
Presure
211 207 209 208 205 197 204 202 201 199 194 195 195 198 190 203 194 203 216 217 211 214 212 196 226 227 222 214 237 239 230 241 257 270 271 284 288 248 260 291 296 455 456 475 521 477 374 340 328 326 315 304 292 297
214 215 213 208 197 198 205 209 209 203 181 193 207 177 194 203 207 212 214 205 206 199 226 210 219 232 214 223 255 235 268 274 291 299 267 271 277 293 373 469 514 507 483 481 466 371 335 332 321 304 309 305 303 291
208 214 213 212 211 208 210 211 216 216 216 219 217 221 220 211 215 233 184 217 219 236 228 226 238 252 254 267 270 281 294 285 256 264 300 303 327 443 436 488 485 483 492 435 369 332 316 320 307 302 290 312 285 282
268 251 224 217 213 208 209 215 218 210 203 212 216 222 219 218 216 225 224 227 208 240 272 267 291 285 277 279 276 252 279 309 376 441 431 423 432 491 469 486 506 418 396 346 321 314 314 312 301 293 288 284 295 286
281 281 279 268 246 233 220 223 222 224 223 226 220 222 223 227 230 195 250 277 273 291 298 293 285 267 288 307 425 455 441 428 418 418 418 443 481 494 434 416 391 335 316 325 313 308 310 304 297 287 279 278 288 295
251 253 266 268 277 284 296 258 257 243 265 293 285 270 269 283 309 306 295 294 332 334 332 409 475 448 440 430 420 417 414 409 408 419 441 410 399 400 385 342 328 316 318 325 298 300 299 294 281 283 280 294 288 300
253 254 257 254 259 268 268 272 277 283 280 284 295 288 294 259 395 512 486 357 364 452 427 427 420 412 399 397 401 406 407 399 420 408 384 382 367 333 325 322 315 308 310 308 298 285 297 290 285 287 286 284 284 285
243 261 271 259 231 235 252 254 241 260 268 271 273 357 327 314 367 481 455 438 426 420 409 402 399 397 396 390 390 403 411 397 383 355 345 333 324 310 314 314 311 300 298 295 303 285 272 284 292 287 277 262 282 269
248 253 254 258 256 267 264 280 298 338 330 309 306 307 314 319 339 425 423 412 400 377 389 378 367 370 371 367 369 371 379 357 331 333 331 327 316 311 310 300 307 289 300 283 286 287 295 297 293 285 277 273 280 297
261 259 262 266 282 322 308 300 297 292 292 291 298 304 308 319 307 309 367 369 383 363 363 357 350 351 348 357 362 347 328 309 298 296 295 315 319 308 288 280 290 272 270 282 283 287 285 278 272 283 279 287 299 310
290 316 312 297 279 274 280 290 294 298 297 298 301 302 302 301 300 296 291 282 283 289 290 307 328 342 323 338 345 314 313 304 314 308 304 294 314 303 284 313 283 276 274 272 280 300 281 295 295 291 292 292 294 302
288 289 287 283 282 286 290 290 294 291 288 285 286 284 283 284 291 287 289 289 288 283 279 273 271 270 276 275 276 278 292 315 313 305 316 299 302 292 294 302 286 289 294 304 287 291 294 300 287 285 278 286 295 292
289 289 289 291 291 286 281 278 275 279 280 280 279 282 279 279 281 280 278 280 279 279 281 282 279 277 277 272 266 263 266 259 265 266 266 265 272 302 303 295 294 297 297 296 293 288 285 287 286 287 285 288 287 294
287 283 277 272 271 273 272 272 271 274 280 280 281 281 282 283 284 277 276 273 272 272 271 273 273 269 271 272 271 271 268 266 267 264 259 254 257 261 260 261 264 265 264 271 291 298 302 301 300 305 303 305 299 292
279 277 275 275 276 274 277 279 283 289 283 287 287 287 286 288 289 292 288 284 282 280 277 277 277 274 271 270 266 270 263 264 264 266 264 264 262 262 262 261 257 256 257 258 259 263 267 264 270 272 283 302 306 309
299 297 295 292 291 292 292 291 286 288 290 289 290 294 295 298 295 294 300 301 298 295 290 289 288 285 285 282 278 277 272 269 268 267 267 266 265 265 265 264 264 263 261 261 261 260 258 257 259 263 270 269 268 274
345 338 331 325 319 314 311 310 307 310 314 314 313 314 312 313 313 313 312 311 310 306 305 302 298 300 299 295 293 294 291 292 290 288 287 286 285 285 285 283 280 277 275 271 270 271 268 262 261 257 257 258 262 273
289 294 294 294 295 297 294 342 342 343 335 334 333 334 336 337 331 331 328 326 321 324 323 318 314 314 315 311 309 311 310 308 306 306 306 305 306 306 307 304 305 306 307 305 303 301 297 287 281 278 270 265 264 259
271 275 273 278 286 290 289 283 282 277 281 285 289 294 302 323 334 337 336 332 325 322 316 312 312 309 307 305 304 304 303 299 297 297 296 291 287 284 283 283 284 283 281 282 285 286 289 294 304 312 318 309 285 274
267 259 259 270 276 273 273 279 289 294 290 288 284 277 273 275 281 284 292 312 335 342 339 331 317 308 305 306 305 302 303 308 311 312 311 309 308 306 305 306 306 307 305 302 300 299 295 288 285 287 291 300 325 345
277 267 268 269 261 261 271 274 275 272 280 280 282 282 282 280 279 283 295 299 296 307 332 338 338 336 333 330 327 322 319 317 316 313 311 311 311 308 308 312 312 312 311 312 309 309 308 307 300 294 296 296 294 301
292 291 278 264 268 273 268 259 266 276 275 274 272 276 285 279 277 277 285 303 308 304 307 324 338 343 344 341 339 336 333 330 330 332 335 336 336 334 333 334 332 333 333 337 340 343 342 335 326 312 306 301 304 298
256 286 290 281 266 270 280 276 267 264 275 278 278 275 276 280 277 270 280 293 304 307 310 325 331 340 344 343 343 343 344 346 346 346 347 347 347 348 350 351 354 357 360 364 367 366 365 363 362 361 361 344 318 315
266 265 260 296 291 278 279 285 279 273 266 278 283 277 277 278 286 270 267 281 301 306 314 331 339 342 345 346 351 354 354 353 352 353 356 360 362 361 359 358 359 360 361 360 360 361 361 363 365 365 365 363 363 366
236 264 271 264 295 292 288 291 287 278 272 267 280 283 284 284 282 266 264 287 304 306 310 322 343 343 350 351 356 359 360 360 366 367 358 361 371 381 386 395 412 471 469 468 467 469 473 482 490 514 511 572 412 383
243 248 264 268 265 299 297 290 292 286 276 273 273 279 282 280 274 273 273 295 307 310 312 331 351 351 360 361 363 361 365 368 362 366 379 415 468 464 463 464 466 464 465 468 465 463 466 475 479 494 512 524 539 561
225 244 250 259 273 270 305 295 291 295 287 276 273 273 281 284 268 266 282 304 312 316 319 342 347 357 359 365 365 371 362 366 387 477 459 458 477 491 494 493 486 472 467 460 462 465 466 463 475 489 504 509 522 542
236 240 246 253 251 279 275 303 299 294 291 287 279 280 281 292 289 266 273 306 317 312 320 348 364 371 365 371 374 365 380 486 457 462 489 488 454 453 461 465 459 456 461 490 467 458 464 470 471 478 485 497 508 521
234 235 229 248 256 258 277 299 304 298 293 284 283 280 282 290 285 267 273 302 318 315 331 358 374 367 371 376 372 394 480 463 478 461 452 454 461 464 482 491 494 488 474 457 456 464 458 458 463 470 477 483 493 506
237 240 241 239 248 259 275 279 296 302 296 289 285 283 284 288 284 264 272 302 317 316 322 358 377 371 378 377 386 476 461 475 468 484 486 471 464 469 470 465 459 454 452 452 454 449 454 454 456 458 464 470 472 454
237 244 246 236 243 250 261 286 276 299 304 295 289 287 284 279 276 277 283 306 317 317 354 359 384 375 383 381 488 459 469 480 486 456 453 451 457 458 455 445 446 443 443 446 440 439 445 447 436 426 438 426 412 403
229 241 241 240 232 252 258 271 291 274 306 302 298 290 280 269 268 275 303 307 319 312 356 370 391 382 388 397 470 489 487 473 446 446 450 459 470 458 446 441 438 436 436 436 411 412 425 426 406 398 385 376 377 376
227 233 246 240 240 250 257 269 285 287 277 300 302 295 272 268 269 275 306 315 323 309 346 376 390 387 389 455 469 495 484 448 440 445 454 443 442 437 426 424 422 400 397 395 391 388 387 388 385 379 374 371 369 368

GFSWCAN_2pvu_pres_201.txt.gz
Presure
209 227 202 197 213 197 199 204 213 192 192 187 187 193 187 177 186 192 182 193 198 195 192 184 206 212 202 210 208 219 213 227 224 227 230 245 284 262 277 292 290 280 288 402 456 458 489 433 401 356 347 331 324 305
202 202 208 206 203 205 202 204 212 192 194 196 193 185 196 198 195 193 177 209 206 210 210 209 215 223 211 219 220 227 223 237 235 241 260 272 280 305 288 296 442 436 450 467 462 461 434 372 330 332 338 334 310 309
217 214 210 206 202 201 201 202 201 200 202 201 196 195 183 199 213 215 215 202 208 212 206 215 220 207 216 233 237 233 244 249 259 286 306 307 325 448 432 433 444 462 486 498 493 452 345 328 322 322 311 308 298 290
226 227 218 214 212 212 209 204 207 207 202 200 196 196 196 219 206 212 219 215 214 226 224 225 224 230 237 237 251 257 298 303 381 467 450 438 429 434 473 476 476 475 455 447 372 329 324 314 317 315 305 297 288 288
232 227 224 219 217 216 216 216 216 217 216 216 223 225 217 204 209 219 194 223 226 226 229 236 236 246 256 293 415 471 456 444 435 432 427 436 452 494 475 458 416 395 366 334 325 325 321 317 303 308 292 293 293 291
240 238 236 235 235 233 229 227 226 228 230 230 230 228 224 229 232 236 236 242 252 264 285 272 466 363 335 329 314 314 428 423 420 429 440 431 422 417 346 348 349 338 331 316 317 311 307 295 300 303 294 283 280 276
288 272 262 262 252 240 243 248 245 247 246 275 258 261 268 268 274 234 271 281 293 357 336 335 422 441 428 414 414 426 425 419 432 413 406 401 348 337 340 343 337 328 321 310 308 301 297 293 288 297 287 286 290 288
255 256 254 258 259 264 269 263 266 256 252 251 261 242 273 255 282 299 328 338 319 336 340 414 404 411 400 398 398 399 413 420 402 383 360 332 341 327 328 307 322 308 327 294 306 295 270 279 280 293 292 293 268 281
260 260 263 259 242 241 243 244 247 259 264 272 264 255 249 249 304 285 319 320 324 312 315 402 387 373 384 395 387 398 373 345 314 321 331 343 330 313 313 310 298 296 299 298 289 285 286 283 287 295 288 274 273 269
228 228 257 248 236 228 228 228 227 232 239 245 327 308 289 314 323 314 310 302 311 310 303 296 293 300 295 299 326 358 329 336 315 319 298 312 300 295 306 284 284 282 275 292 296 297 298 299 300 299 295 295 289 287
236 236 252 247 260 265 276 304 307 294 287 290 301 309 309 299 293 294 293 292 298 297 296 300 298 291 293 284 280 279 269 275 300 308 319 310 304 300 296 293 293 297 303 287 288 293 288 282 275 277 288 284 280 290
282 298 299 307 303 299 296 294 294 303 306 301 294 292 289 288 288 286 286 287 288 287 289 284 282 283 285 286 285 285 284 279 271 268 270 268 268 283 294 300 296 294 296 295 293 291 288 288 289 288 288 293 294 288
293 294 294 296 297 299 303 303 296 292 286 282 283 284 291 296 297 296 300 297 296 291 290 285 284 280 280 279 274 278 275 275 279 273 271 271 269 260 258 260 260 261 263 264 269 276 297 307 303 305 307 309 310 310
304 300 296 291 286 281 281 282 285 284 285 286 294 298 297 298 301 305 304 308 305 306 307 302 296 292 290 288 284 279 274 274 273 273 270 269 267 269 268 268 267 264 260 258 258 258 259 261 262 262 264 268 274 290
298 297 295 295 295 296 296 297 300 301 302 302 306 310 312 317 319 319 317 317 318 319 314 312 310 308 305 300 297 295 293 286 282 281 281 277 276 273 270 269 266 267 269 269 268 266 264 263 260 258 259 261 265 269
322 333 344 340 338 337 337 337 335 337 339 340 339 339 339 338 338 342 341 340 338 331 329 324 320 319 316 313 310 308 308 306 303 301 299 297 294 290 289 288 284 282 280 279 277 275 276 273 273 271 269 263 260 258
277 281 285 288 293 295 297 295 292 292 287 289 287 287 290 291 291 295 299 308 324 335 335 330 326 320 311 306 310 312 307 306 302 299 295 296 296 310 310 310 306 307 307 307 307 308 308 304 300 296 292 286 280 276
276 270 269 268 272 278 280 279 283 290 297 298 298 296 294 289 286 283 281 284 293 295 294 297 308 325 333 329 324 322 308 307 307 308 308 307 309 307 308 305 301 300 297 293 288 284 281 278 279 280 284 289 300 315
294 281 273 273 277 275 269 263 272 276 278 277 277 277 279 287 288 283 279 274 279 293 309 307 302 297 302 308 320 326 330 328 326 322 319 310 306 306 304 304 305 308 311 311 310 310 308 309 308 300 292 282 284 287
278 302 294 283 274 272 284 283 274 267 267 278 280 281 280 277 279 283 286 270 266 275 282 296 301 305 311 320 325 330 334 335 336 334 334 334 325 328 326 323 318 314 311 310 310 309 309 306 306 307 312 316 316 315
276 272 270 310 300 291 284 292 288 282 272 267 279 283 282 281 282 283 287 271 266 267 282 311 305 306 310 314 322 332 342 347 349 349 344 345 345 346 343 342 340 337 336 336 335 335 334 333 331 329 328 328 327 319
247 255 276 276 298 309 302 296 295 288 283 274 270 277 280 280 282 281 279 272 270 281 284 309 308 312 316 313 343 350 349 348 352 354 354 353 353 353 354 353 351 351 351 352 354 356 356 357 359 359 361 364 367 371
238 238 251 259 274 280 312 305 298 296 291 285 279 272 272 273 278 282 285 265 267 272 291 307 317 311 310 347 352 355 363 368 361 361 362 358 353 355 358 362 365 366 363 358 359 358 359 361 363 366 367 368 370 371
238 243 234 245 255 261 285 316 310 303 299 294 287 281 277 278 279 283 284 260 266 268 287 301 316 310 302 347 355 380 377 365 364 365 368 368 364 362 366 374 383 390 400 428 452 457 459 460 460 458 459 462 411 401
224 243 242 241 235 252 261 283 290 313 308 298 289 285 284 280 281 281 280 269 265 277 298 306 314 309 324 359 367 385 372 368 373 370 369 380 395 436 474 462 460 462 478 498 500 498 497 495 488 482 474 473 476 475
230 229 229 245 239 238 250 260 270 294 293 309 300 291 288 285 281 276 267 269 272 304 309 314 316 307 358 366 379 378 373 377 373 383 436 473 465 472 478 481 462 454 454 455 456 455 456 460 461 467 476 483 487 490
228 229 223 232 247 244 244 250 258 268 278 300 308 305 299 291 275 268 262 272 276 301 314 322 315 304 357 375 384 376 379 379 447 469 468 473 472 472 476 480 483 484 490 482 464 464 472 488 477 468 466 466 471 482
230 229 233 224 236 244 247 249 255 260 264 274 300 304 307 308 299 269 264 267 275 288 314 320 314 305 366 380 387 380 387 455 466 473 472 482 493 471 461 461 468 470 472 477 472 463 458 455 453 453 455 463 470 482
226 226 225 227 219 238 242 246 247 255 267 264 272 302 303 309 305 297 266 265 267 280 301 325 317 302 378 387 386 389 436 468 482 486 474 451 448 453 457 456 457 456 454 450 452 452 446 443 444 454 457 460 462 468
219 224 227 229 217 236 242 240 231 247 260 267 272 271 304 307 311 303 298 270 267 273 292 325 325 297 373 394 389 398 477 492 497 464 449 452 458 462 462 454 450 447 442 440 434 434 439 446 449 443 446 447 450 454
223 219 209 227 225 235 239 244 232 242 254 267 270 275 279 308 306 308 299 293 268 271 287 321 326 298 386 394 395 415 479 501 459 443 443 448 445 440 440 437 436 429 428 422 414 422 432 431 424 425 423 423 422 421
218 224 213 220 224 225 237 238 242 239 246 260 271 275 277 304 300 307 305 296 282 277 286 320 324 303 392 398 398 484 501 478 442 424 413 411 413 417 419 426 397 394 397 397 394 395 403 402 389 385 382 382 383 381
215 229 220 218 219 231 236 236 236 246 241 250 269 275 280 275 306 297 310 302 267 282 289 321 325 313 395 402 400 490 511 469 435 409 396 390 386 386 390 402 409 418 386 382 381 383 381 378 377 374 371 370 370 371

GFSWCAN_2pvu_pres_204.txt.gz
Presure
206 216 213 209 213 186 186 191 187 193 194 191 191 194 197 182 192 196 190 195 192 187 198 202 200 182 205 201 192 198 201 207 208 214 222 234 229 238 240 247 261 275 389 443 444 435 424 420 424 444 464 366 342 346
217 212 205 204 199 200 198 200 197 197 202 206 203 193 192 187 190 199 195 192 203 208 200 216 211 209 199 199 200 185 210 211 226 229 238 239 247 255 273 288 334 473 450 325 431 435 434 430 481 453 358 348 342 345
214 217 215 217 213 219 221 205 206 226 217 189 210 211 194 198 197 196 207 207 194 201 200 199 198 200 204 208 211 217 223 238 234 247 256 261 290 355 456 363 455 467 458 475 459 442 497 468 357 349 343 328 347 314
214 214 214 222 212 206 215 215 207 199 205 206 221 198 196 206 204 203 202 188 199 201 198 201 207 209 224 221 222 228 249 250 255 258 293 350 310 454 455 471 477 474 474 468 381 373 363 347 329 324 327 323 305 296
217 207 217 206 209 213 209 205 202 210 158 201 223 203 210 204 203 205 218 210 213 213 219 223 217 229 236 243 247 254 258 314 334 412 434 450 468 470 425 439 424 388 372 360 356 348 333 310 323 309 306 311 302 292
222 229 228 222 218 220 212 226 216 209 210 205 205 202 214 217 217 217 217 221 221 228 235 232 240 246 251 274 312 457 286 459 449 441 456 459 409 381 365 369 367 364 349 336 306 333 306 303 292 300 306 305 304 284
228 229 215 216 213 212 216 211 214 216 214 210 212 210 222 224 226 232 234 238 244 250 248 270 260 289 321 355 396 453 452 461 462 446 427 373 355 362 356 364 322 330 334 312 307 323 311 284 297 303 275 297 289 288
214 225 225 223 224 227 227 229 229 228 227 229 228 229 226 232 232 247 251 268 275 276 279 271 274 298 333 327 327 323 318 345 386 362 350 343 346 353 348 344 326 327 309 313 305 308 289 289 287 281 280 285 290 291
217 227 236 239 235 237 237 234 217 209 205 233 248 241 241 248 257 267 272 258 274 265 316 333 322 314 311 316 317 312 305 297 295 340 337 356 333 314 314 326 302 311 295 318 303 300 302 298 293 295 292 286 292 281
236 239 230 239 242 245 257 254 251 245 238 250 283 277 266 255 277 291 251 261 331 323 317 306 303 298 296 298 299 303 300 291 291 291 284 311 322 325 312 310 307 298 298 285 291 293 292 283 291 290 274 290 289 283
291 290 295 287 282 275 274 272 265 268 270 266 268 252 252 277 319 314 319 312 306 301 302 305 307 306 303 297 296 290 292 288 282 283 281 282 276 277 275 269 273 296 303 298 299 298 291 290 291 293 288 288 288 293
260 260 247 259 257 258 251 250 243 246 257 274 316 316 315 317 311 301 296 301 311 312 316 317 321 320 319 315 308 301 299 297 293 289 282 279 277 276 274 272 271 267 264 263 262 265 282 284 304 303 303 304 305 305
249 261 257 259 269 283 294 320 319 313 318 321 313 303 300 300 302 309 310 315 320 327 330 327 327 325 321 319 317 311 307 304 302 297 294 296 291 280 279 277 271 268 269 268 269 267 262 260 260 263 265 265 268 274
314 310 308 311 315 321 319 314 305 302 302 306 312 320 331 339 345 348 352 350 349 350 352 350 344 336 331 328 324 322 316 316 312 305 302 297 300 298 294 290 287 284 282 279 274 271 269 267 267 265 264 261 258 259
332 333 334 335 336 338 342 349 356 359 360 360 363 364 344 349 345 314 309 306 304 304 305 310 320 337 334 339 335 329 327 318 314 306 307 304 303 301 302 301 298 298 298 295 293 290 287 286 286 284 282 274 266 263
295 297 298 299 299 299 298 301 306 309 309 308 304 302 300 301 298 293 289 288 285 285 292 292 302 307 307 302 303 300 305 308 328 332 325 321 312 308 305 302 301 301 299 299 301 305 307 303 303 304 304 304 298 301
291 290 287 283 282 282 283 281 285 287 286 281 279 281 280 281 281 287 290 289 283 278 274 273 278 285 291 299 302 302 301 303 310 313 317 318 322 325 326 317 310 307 303 300 300 306 307 304 298 298 299 288 283 290
312 301 296 290 282 283 289 292 285 274 273 278 280 281 283 283 281 278 281 284 288 290 271 269 267 280 294 303 298 303 308 302 306 309 315 320 325 330 333 333 336 332 328 326 320 316 311 304 302 304 309 309 305 302
288 309 323 317 312 304 296 294 296 290 282 278 272 277 285 287 286 284 284 285 283 279 270 274 273 283 298 303 313 310 308 305 312 320 343 346 342 339 338 342 342 339 338 336 334 331 328 328 327 326 322 317 310 309
254 262 273 296 329 324 319 312 308 301 295 290 280 277 276 280 280 281 282 284 284 270 264 265 267 284 296 304 309 311 307 306 312 342 347 348 354 356 353 343 342 345 344 343 343 344 343 342 341 340 339 337 334 331
249 242 242 254 268 285 332 329 319 317 312 305 296 288 280 279 279 280 284 287 284 270 266 283 302 304 306 310 313 305 299 334 355 360 353 362 369 371 363 359 360 358 355 354 355 355 355 355 354 356 354 354 352 349
229 235 247 250 252 255 266 274 280 317 324 315 306 297 291 289 287 287 285 279 273 272 273 279 295 310 316 313 307 297 306 355 359 366 371 379 373 365 364 365 366 367 367 367 368 368 367 368 370 371 372 373 374 375
232 226 227 234 242 237 245 252 261 270 274 281 322 317 308 300 293 284 274 273 268 269 264 272 279 292 316 316 303 297 364 359 374 380 379 373 370 370 370 371 373 381 388 395 404 425 431 435 435 436 437 436 397 392
224 223 231 215 234 235 244 232 244 245 259 274 274 281 313 314 310 305 304 285 263 260 259 262 270 283 317 318 312 295 370 382 388 384 379 381 378 399 435 466 469 463 464 467 466 470 490 494 497 505 505 510 513 512
212 226 214 226 228 232 231 241 238 246 241 250 262 276 275 295 307 311 309 300 299 295 270 260 269 283 317 319 303 304 388 386 383 383 383 417 473 467 471 478 478 474 480 480 481 484 489 485 478 472 463 459 463 472
211 221 215 218 225 223 234 232 238 238 230 247 241 254 274 273 280 295 306 310 306 297 294 279 272 286 324 322 308 315 389 390 390 392 459 472 485 499 486 458 456 453 456 466 471 475 483 513 511 483 476 482 488 485
209 217 216 225 212 221 216 227 238 232 238 234 250 240 253 273 275 281 304 288 307 310 299 283 280 297 329 322 308 394 389 395 394 471 484 504 472 456 459 459 464 465 460 460 456 456 456 459 462 464 464 462 461 460
205 205 220 219 225 225 216 222 229 237 228 240 229 249 257 259 275 281 289 312 286 307 311 286 282 293 323 327 303 393 397 398 470 492 493 451 450 455 458 462 461 452 451 446 445 447 450 448 447 452 454 448 449 455
218 215 208 217 211 228 223 228 223 236 238 236 239 228 252 264 260 280 288 298 308 289 308 309 280 285 311 330 305 400 403 408 499 508 449 426 421 424 440 413 442 437 433 437 436 428 439 446 447 437 438 443 447 452
210 212 199 216 222 213 226 228 231 219 238 244 236 242 238 256 268 264 284 301 308 290 294 311 293 286 304 333 308 405 409 470 518 477 435 406 398 401 410 421 395 397 403 405 411 426 432 416 423 429 436 439 441 444
214 216 215 215 215 221 224 225 228 234 237 234 243 242 249 251 263 262 282 298 308 287 300 307 304 287 298 333 314 411 413 514 499 454 424 402 387 378 379 389 410 398 389 392 390 395 400 393 392 392 398 399 400 405
215 220 217 220 210 220 223 224 227 232 224 231 237 243 248 251 260 260 279 284 294 299 299 303 309 288 297 331 321 331 413 511 480 445 418 399 383 372 363 357 365 382 403 387 383 382 379 378 378 374 373 373 375 374
221 220 222 224 201 215 223 227 227 229 229 230 230 242 245 256 258 262 265 279 285 294 293 297 310 291 296 319 330 312 414 513 475 438 414 392 374 363 361 368 488 389 358 364 389 381 378 375 374 372 372 370 368 367